Clinton, AR

12:23 PM CST on February 13, 2016 (GMT -0600)
Clinton

Weather History for KCCA - March, 2014

Change the Weather History Date:

Thursday, March 27, 2014

  Actual Average (KFLP) Record (KFLP)
Temperature  
Mean Temperature 58 °F -  
Max Temperature 64 °F 62 °F 80 °F (2008)
Min Temperature 51 °F 41 °F 23 °F (2001)
Degree Days  
Heating Degree Days 8    
Growing Degree Days 8 (Base 50)    
Moisture  
Dew Point 46 °F    
Average Humidity 72    
Maximum Humidity 94    
Minimum Humidity 47    
Precipitation  
Precipitation 0.00 in - - ()
Sea Level Pressure  
Sea Level Pressure 29.86 in    
Wind  
Wind Speed 6 mph (SSE)    
Max Wind Speed 12 mph    
Max Gust Speed 18 mph    
Visibility 10 miles    
Events      
Averages and records for this station are not official NWS values.
T = Trace of Precipitation, MM = Missing Value Source: NWS Daily Summary

Daily Weather History Graph

Daily Weather History Graph

Search for Another Location

Airport or City:

Trip Planner

Search our weather history database for the weather conditions in past years. The results will help you decide how hot, cold, wet, or windy it might be!

Date:

Astronomy

Mar. 27, 2014 Rise Set
Actual Time 7:03 AM CDT 7:27 PM CDT
Civil Twilight 6:37 AM CDT 7:52 PM CDT
Nautical Twilight 6:07 AM CDT 8:22 PM CDT
Astronomical Twilight 5:37 AM CDT 8:53 PM CDT
Moon 4:48 AM CDT (3/27) 4:21 PM CDT (3/27)
Length of Visible Light 13h 15m
Length of Day
12h 24m
Waning Crescent, 13% of the Moon is Illuminated
Mar 27
Waning Crescent
Mar 30
New
Apr 7
First Quarter
Apr 15
Full
Apr 22
Last Quarter

Hourly Weather History & Observations

Time (CDT) Temp. Dew Point Humidity Pressure Visibility Wind Dir Wind Speed Gust Speed Precip Events Conditions
12:15 AM 51.8 °F 33.8 °F 50% 30.02 in 10.0 mi SSE 6.9 mph - N/A   Overcast
12:35 AM 51.8 °F 33.8 °F 50% 30.01 in 10.0 mi SE 5.8 mph - N/A   Overcast
12:55 AM 51.8 °F 33.8 °F 50% 30.01 in 10.0 mi SE 5.8 mph - N/A   Overcast
1:15 AM 51.8 °F 33.8 °F 50% 30.00 in 10.0 mi SE 4.6 mph - N/A   Overcast
1:35 AM 51.8 °F 32.0 °F 47% 29.99 in 10.0 mi SE 3.5 mph - N/A   Overcast
1:55 AM 51.8 °F 33.8 °F 50% 29.98 in 10.0 mi SE 6.9 mph - N/A   Overcast
2:15 AM 51.8 °F 33.8 °F 50% 29.98 in 10.0 mi SE 5.8 mph - N/A   Overcast
2:35 AM 51.8 °F 33.8 °F 50% 29.97 in 10.0 mi SSE 3.5 mph - N/A   Overcast
2:55 AM 51.8 °F 33.8 °F 50% 29.96 in 10.0 mi SSE 3.5 mph - N/A   Mostly Cloudy
3:15 AM 51.8 °F 33.8 °F 50% 29.95 in 10.0 mi SE 3.5 mph - N/A   Overcast
3:35 AM 51.8 °F 33.8 °F 50% 29.95 in 10.0 mi SSE 3.5 mph - N/A   Overcast
3:55 AM 51.8 °F 33.8 °F 50% 29.94 in 10.0 mi SSE 4.6 mph - N/A   Overcast
4:15 AM 51.8 °F 33.8 °F 50% 29.94 in 10.0 mi South 5.8 mph - N/A   Overcast
4:35 AM 53.6 °F 33.8 °F 47% 29.93 in 10.0 mi SSE 5.8 mph - N/A   Overcast
4:55 AM 53.6 °F 33.8 °F 47% 29.93 in 10.0 mi South 3.5 mph - N/A   Mostly Cloudy
5:15 AM 53.6 °F 33.8 °F 47% 29.93 in 10.0 mi South 9.2 mph - N/A   Mostly Cloudy
5:35 AM 51.8 °F 35.6 °F 54% 29.93 in 10.0 mi SSE 5.8 mph - N/A   Overcast
5:55 AM 51.8 °F 35.6 °F 54% 29.93 in 10.0 mi SSE 6.9 mph - N/A   Mostly Cloudy
6:15 AM 51.8 °F 35.6 °F 54% 29.93 in 10.0 mi South 5.8 mph - N/A   Mostly Cloudy
6:35 AM 51.8 °F 37.4 °F 58% 29.93 in 10.0 mi South 8.1 mph - N/A   Overcast
6:55 AM 51.8 °F 37.4 °F 58% 29.92 in 10.0 mi South 10.4 mph - N/A   Overcast
7:15 AM 53.6 °F 39.2 °F 58% 29.92 in 10.0 mi South 5.8 mph - N/A   Overcast
7:35 AM 51.8 °F 39.2 °F 62% 29.92 in 10.0 mi South 8.1 mph - N/A   Overcast
7:55 AM 53.6 °F 41.0 °F 62% 29.92 in 10.0 mi South 6.9 mph - N/A   Overcast
8:15 AM 53.6 °F 41.0 °F 62% 29.92 in 10.0 mi South 8.1 mph - N/A   Overcast
8:35 AM 53.6 °F 42.8 °F 67% 29.92 in 10.0 mi South 6.9 mph 18.4 mph N/A   Overcast
8:55 AM 53.6 °F 42.8 °F 67% 29.93 in 10.0 mi South 11.5 mph - N/A   Overcast
9:15 AM 53.6 °F 44.6 °F 72% 29.92 in 10.0 mi South 8.1 mph - N/A   Overcast
9:35 AM 53.6 °F 42.8 °F 67% 29.92 in 9.0 mi South 10.4 mph 16.1 mph N/A   Overcast
9:55 AM 53.6 °F 44.6 °F 72% 29.91 in 9.0 mi South 6.9 mph - N/A   Overcast
10:15 AM 53.6 °F 44.6 °F 72% 29.92 in 9.0 mi SSE 5.8 mph - N/A   Overcast
10:35 AM 53.6 °F 44.6 °F 72% 29.91 in 9.0 mi SSE 9.2 mph - N/A   Overcast
10:55 AM 53.6 °F 44.6 °F 72% 29.91 in 9.0 mi SSE 4.6 mph - N/A   Overcast
11:15 AM 53.6 °F 46.4 °F 77% 29.91 in 8.0 mi South 8.1 mph - N/A   Overcast
11:35 AM 53.6 °F 46.4 °F 77% 29.89 in 9.0 mi SSE 5.8 mph - N/A   Overcast
11:55 AM 53.6 °F 46.4 °F 77% 29.88 in 8.0 mi SSE 6.9 mph - N/A   Overcast
12:15 PM 53.6 °F 46.4 °F 77% 29.87 in 8.0 mi SE 6.9 mph - N/A   Overcast
12:35 PM 53.6 °F 46.4 °F 77% 29.86 in 8.0 mi SE 4.6 mph - N/A   Overcast
12:55 PM 55.4 °F 46.4 °F 72% 29.84 in 8.0 mi SE 5.8 mph - N/A   Overcast
1:15 PM 55.4 °F 46.4 °F 72% 29.83 in 8.0 mi ESE 5.8 mph - N/A   Overcast
1:35 PM 53.6 °F 46.4 °F 77% 29.83 in 9.0 mi Calm Calm - N/A   Overcast
1:55 PM 53.6 °F 48.2 °F 82% 29.81 in 9.0 mi East 3.5 mph - N/A   Overcast
2:15 PM 53.6 °F 48.2 °F 82% 29.81 in 10.0 mi East 3.5 mph - N/A   Overcast
2:35 PM 53.6 °F 48.2 °F 82% 29.80 in 8.0 mi ENE 3.5 mph - N/A   Overcast
2:55 PM 53.6 °F 48.2 °F 82% 29.80 in 9.0 mi Calm Calm - N/A   Overcast
3:15 PM 53.6 °F 48.2 °F 82% 29.79 in 8.0 mi ENE 3.5 mph - N/A   Overcast
3:35 PM 53.6 °F 50.0 °F 88% 29.78 in 8.0 mi Calm Calm - N/A   Overcast
3:55 PM 55.4 °F 51.8 °F 88% 29.77 in 8.0 mi ESE 4.6 mph - N/A   Overcast
4:15 PM 53.6 °F 51.8 °F 94% 29.77 in 6.0 mi Calm Calm - N/A   Overcast
4:35 PM 55.4 °F 51.8 °F 88% 29.75 in 8.0 mi Calm Calm - N/A   Overcast
4:55 PM 55.4 °F 53.6 °F 94% 29.74 in 8.0 mi SSE 3.5 mph - N/A   Overcast
5:15 PM 57.2 °F 55.4 °F 94% 29.74 in 10.0 mi SSE 5.8 mph - N/A   Overcast
5:35 PM 59.0 °F 55.4 °F 88% 29.73 in 10.0 mi South 4.6 mph - N/A   Overcast
5:55 PM 59.0 °F 55.4 °F 88% 29.73 in 10.0 mi South 5.8 mph - N/A   Overcast
6:15 PM 60.8 °F 57.2 °F 88% 29.73 in 10.0 mi South 4.6 mph - N/A   Overcast
6:35 PM 60.8 °F 57.2 °F 88% 29.74 in 10.0 mi SSW 3.5 mph - N/A   Overcast
6:55 PM 60.8 °F 57.2 °F 88% 29.74 in 10.0 mi South 5.8 mph - N/A   Overcast
7:15 PM 60.8 °F 57.2 °F 88% 29.74 in 10.0 mi South 4.6 mph - N/A   Overcast
7:35 PM 62.6 °F 57.2 °F 82% 29.74 in 10.0 mi South 5.8 mph - N/A   Overcast
7:55 PM 62.6 °F 59.0 °F 88% 29.75 in 10.0 mi Calm Calm - N/A   Overcast
8:15 PM 62.6 °F 59.0 °F 88% 29.75 in 10.0 mi Calm Calm - N/A   Overcast
8:35 PM 62.6 °F 59.0 °F 88% 29.76 in 10.0 mi SSE 3.5 mph - N/A   Overcast
8:55 PM 62.6 °F 60.8 °F 94% 29.76 in 10.0 mi SSE 4.6 mph - N/A   Overcast
9:15 PM 62.6 °F 60.8 °F 94% 29.77 in 10.0 mi South 5.8 mph - N/A   Overcast
9:35 PM 62.6 °F 60.8 °F 94% 29.78 in 10.0 mi South 4.6 mph - N/A   Overcast
9:55 PM 64.4 °F 60.8 °F 88% 29.79 in 10.0 mi South 4.6 mph - N/A   Overcast
10:15 PM 64.4 °F 60.8 °F 88% 29.78 in 10.0 mi SSE 6.9 mph - N/A   Overcast
10:35 PM 64.4 °F 60.8 °F 88% 29.77 in 10.0 mi South 9.2 mph - N/A   Overcast
10:55 PM 64.4 °F 60.8 °F 88% 29.77 in 10.0 mi SSE 5.8 mph - N/A   Overcast
11:15 PM 64.4 °F 60.8 °F 88% 29.79 in 10.0 mi South 4.6 mph - N/A   Overcast
11:35 PM 64.4 °F 60.8 °F 88% 29.80 in 10.0 mi South 6.9 mph - N/A   Overcast
11:55 PM 64.4 °F 60.8 °F 88% 29.80 in 10.0 mi South 4.6 mph - N/A   Overcast